CZ-6A DEB, 56683

Orbit data source: Space-Track

CZ-6A DEB, 56683 is space debris in SSO originally from a launch on Fri, 11 Nov 2022 UTC launched from the Taiyaun Space Center, China (TSC). Debris objects in space refer to the collection of defunct objects orbiting the Earth. Examples of debris include non-operational satellites, rocket bodies, and fragments generated from explosions, collisions, or faulty payload assembly.

Loading next visibility...
Identifier
56683, 2022-151AHK
Orbit
SSO
Country
Flag of CNCN / PRC
Related business
Manufacturer
SAST
Mission
Spacecraft
Bus & Motor
Unknown
Mass
Unknown
Launch date (UTC)
2022-11-11 (4 years ago)
Launch vehicle
Unknown
Launch site
Taiyaun Space Center, China (TSC)
Object type
Payload
Rocket body
Debris
Shape & HBR
Unknown shape, 0.1 m
Radar Cross Section
Small (<0.1 m²)

Expand to show TLE details & history
Last TLE update: 6 days ago

TLE from 6 days ago
0 CZ-6A DEB
1 56683U 22151AHK 26167.71928356  .00000140  00000-0  10362-3 0  9992
2 56683  98.8387 167.0374 0043416 325.1436  34.6893 14.09890867159890
Epoch: 2026-06-16T17:15Z
TLE epoch observation values (Epoch: 2026-06-16T17:15:46.099Z)
Latitude
-0.00001°
Longitude
3.10804°
Altitude
836.843 km
Speed
7.448 km/s
True Right ascension
11h 08m 08s
True Declination
0° 00' 00"
Sunlit
Object was in daylight at epoch
Visualization orbit readout
Latitude
Unknown
Longitude
Unknown
Altitude
Unknown
Speed
Unknown
Apparent Right ascension
Unknown
Apparent Declination
Unknown
Sunlit
N/A
Visualization observer readout
Local Sidereal Time
21:49:44
Azimuth
Unknown
Elevation
Unknown
Doppler factor
Unknown
Orbital elements
Apogee altitude
888.335 km
Perigee altitude
825.512 km
Semi-major axis
7,235.06 km
Eccentricity
0.00434
Inclination
98.8387°
RAAN
167.0374°
Arg. of periapsis
325.1436°
True anomaly
34.97371°
Mean anomaly
34.6893°
Eccentric anomaly
34.83138°
Mean motion
3.52679 °/min
Orbital period
102.08 mins
BSTAR
0.00010362
Loading maneuver chart data...
Computing Atmospheric mass density...
Loading historical data...
Loading historical data...
Loading historical data...
Loading historical data...
Loading historical data...
Loading historical data...
Loading historical data...

Documentation

Showing up to 5 results
|